Tracking 30923 objects as of 1-Jul-2025
HD Live streaming from Space Station
objects crossing your sky now

OPS 4682 (SNAPSHOT)

Track OPS 4682 (SNAPSHOT) now!
10-day predictions
OPS 4682 (SNAPSHOT) is classified as:


NORAD ID: 1314
Int'l Code: 1965-027A
Perigee: 1,277.2 km
Apogee: 1,325.9 km
Inclination: 90.2 °
Period: 111.5 minutes
Semi major axis: 7672 km
RCS: 6.457 m2 (large)
Launch date: April 3, 1965
Source: United States (US)
Launch site: AIR FORCE WESTERN TEST RANGE (AFWTR)

OPS 4682 (SNAPSHOT) is a military satellite launched from Vandenberg AFB aboard an Atlas Agena D rocket. It carries a SNAP-9A nuclear power source. The onboard reactor provided electrical power for a 2.2-lb ion engine.
Your satellite tracking list
COSMOS 1375 DEB
Track 1 satellite(s)




NASA's NSSDC Master Catalog

Two Line Element Set (TLE):
1 01314U 65027A   25181.51932358 -.00000003  00000-0 -40838-4 0  9994
2 01314  90.2359 358.5771 0031738 125.9859 288.7846 12.91797035585629
Source of the keplerian elements: AFSPC